Regional Weather Roundup
Issued by NWS

Home | Current Version | Previous Version | Graphics & Text | Print | Product List | Glossary On
Versions: 1 2 3 4 5 6 7 8 9 10 11 12 13 14 15 16 17 18 19 20 21 22 23 24 25 26 27 28 29 30 31 32 33 34 35 36 37 38 39 40 41 42 43 44 45 46 47 48 49 50
000
ASUS43 KOAX 190802
RWRNE

WEATHER ROUNDUP FOR NEBRASKA
NATIONAL WEATHER SERVICE OMAHA NE
200 AM CST SUN FEB 19 2017

NOTES: SATELLITE DATA IS BEING USED TO AUGMENT CLOUD COVER ABOVE
       12000 FEET.
       "FAIR" INDICATES FEW OR NO CLOUDS BELOW 12,000 FEET WITH NO
       SIGNIFICANT WEATHER AND/OR OBSTRUCTIONS TO VISIBILITY.

  * THESE STATIONS DO NOT REPORT WEATHER SUCH AS RAIN...SNOW OR FOG.

NEZ001>004-019>022-054>056-190900-
NEBRASKA PANHANDLE

CITY           SKY/WX    TMP DP  RH WIND       PRES   REMARKS
SCOTTSBLUFF    CLOUDY    41  29  62 E6        29.65F
ALLIANCE       CLOUDY    39  31  72 SE8       29.64F WCI  33
CHADRON        CLOUDY    45  31  58 S13       29.63F
KIMBALL        CLOUDY    41  26  54 NW5       29.65F
SIDNEY         CLOUDY    45  26  47 S12       29.65F
$$

NEZ057>060-069>072-079>082-190900-
SOUTHWEST NEBRASKA

CITY           SKY/WX    TMP DP  RH WIND       PRES   REMARKS
NORTH PLATTE   PTCLDY    38  32  79 E8        29.73S WCI  32
IMPERIAL       PTCLDY    51  30  44 S16       29.71S
LEXINGTON      PTCLDY    46  37  73 S13       29.75F
MCCOOK         PTCLDY    50  37  61 S10       29.74S
OGALLALA       CLOUDY    47  35  62 E5        29.70S
$$

NEZ005>010-023>029-035>040-094-190900-
NORTH CENTRAL NEBRASKA

CITY           SKY/WX    TMP DP  RH WIND       PRES   REMARKS
VALENTINE      CLOUDY    44  32  62 S6        29.69F
AINSWORTH      CLOUDY    43  34  69 S9        29.71F
BROKEN BOW     PTCLDY    31  27  85 CALM      29.74F
O`NEILL        PTCLDY    43  33  69 S9        29.75F
ORD            PTCLDY    42  30  62 SE3       29.76S
THEDFORD       CLOUDY    38  33  84 SE3       29.72F
$$

NEZ041-046>049-061>064-073>077-083>087-190900-
SOUTH CENTRAL NEBRASKA

CITY           SKY/WX    TMP DP  RH WIND       PRES   REMARKS
GRAND ISLAND   CLEAR     44  38  79 S10       29.80R
AURORA         CLOUDY    44  36  74 S7        29.80R
HASTINGS       PTCLDY    47  39  74 S5        29.81R
HEBRON         MOCLDY    51  45  78 S7        29.82R
HOLDREGE       PTCLDY    46  38  74 S12       29.78R
KEARNEY *      PTCLDY    46  37  71 S7        29.78S
YORK           PTCLDY    46  37  71 S8        29.81S
$$

NEZ011>018-030>034-042>045-190900-
NORTHEAST NEBRASKA

CITY           SKY/WX    TMP DP  RH WIND       PRES   REMARKS
NORFOLK        PTCLDY    40  32  73 SE9       29.78F WCI  34
ALBION         PTCLDY    41  32  69 SE6       29.79S
BLAIR          CLOUDY    49  33  55 SE9       29.82S
FREMONT        PTCLDY    42  34  73 CALM      29.83R
TEKAMAH        MOCLDY    37  33  85 CALM      29.84S
WAYNE          PTCLDY    42  34  74 S6        29.81S
$$

NEZ050>053-065>068-078-088>093-190900-
SOUTHEAST NEBRASKA

CITY           SKY/WX    TMP DP  RH WIND       PRES   REMARKS
LINCOLN        PTCLDY    37  30  75 N3        29.84R
OMAHA EPPLEY   CLOUDY    42  32  67 S5        29.83F
BEATRICE       PTCLDY    46  38  74 SE3       29.83S
FALLS CITY     CLEAR     50  43  77 S10       29.86R
NEBRASKA CITY  CLEAR     45  31  58 S9        29.84S
PLATTSMOUTH    CLEAR     46  30  54 SE7       29.84R
$$

NEZ044-045-051>053-067-190900-
OMAHA AREA

CITY           SKY/WX    TMP DP  RH WIND       PRES   REMARKS
OMAHA EPPLEY   CLOUDY    42  32  67 S5        29.83F
BLAIR          CLOUDY    49  33  55 SE9       29.82S
FREMONT        PTCLDY    42  34  73 CALM      29.83R
MILLARD        PTCLDY    41  35  77 CALM      29.83S
OFFUTT AFB     CLEAR     36  35  94 CALM      29.83S
PLATTSMOUTH    CLEAR     46  30  54 SE7       29.84R
WAHOO          FAIR      39  32  76 CALM      29.83R
$$



USA.gov is the U.S. government's official web portal to all federal, state and local government web resources and services.